Location: Newark
(41.8083°N, 72.2500°W)
Time: 10:44:53
(UTC+00:00)

Explorer 11/Cluster Stage 4 - Pass Details

Date: 11 December 2021
Orbit: 467 x 1255 km, 28.8° (Epoch: 23 January)

Event Time Altitude Azimuth Distance (km) Brightness Sun altitude
Rises 07:07:28 0° 249° (WSW) 3,092 - -54.4°
Reaches altitude 10° 07:10:25 10° 230° (SW) 2,319 - -53.9°
Maximum altitude 07:14:07 18° 188° (S) 1,985 - -53.3°
Drops below altitude 10° 07:18:18 10° 148° (SSE) 2,695 - -52.5°
Exits shadow 07:22:01 - 131° (SE) 3,776 10.3 -51.9°
Sets 07:22:06 0° 131° (SE) 3,806 10.4 -51.9°
